Retour au catalogue

COSMOS 2251 DEB

LostVLEO
NORAD 39554·DEBRIS·🇷🇺 Russia

Lancé Jun 16, 1993 depuis Plesetsk Cosmodrome

Loading…

Prochains Passages (prochaines 24 heures)

TLE

PériméSource: Space-Track

Époque: Aug 7, 2026, 10:54 UTC

1 39554U 93036BUL 26219.45423685  .00196817  00000-0  25328-2 0  9998
2 39554  73.9948 118.7511 0022132 183.6250 176.4810 15.58027222680170

Suivez COSMOS 2251 DEB en temps réel avec AllMySat

Download on the App Store